Regional Weather Roundup
Issued by NWS

Home | Current Version | Previous Version | Graphics & Text | Print | Product List | Glossary On
Versions: 1 2 3 4 5 6 7 8 9 10 11 12 13 14 15 16 17 18 19 20 21 22 23 24 25 26 27 28 29
000
ASUS45 KCYS 250810
RWRWY

WYOMING REGIONAL WEATHER ROUNDUP
NATIONAL WEATHER SERVICE CHEYENNE WY
200 AM MDT SAT OCT 25 2014

NOTE:  "FAIR" INDICATES FEW OR NO CLOUDS BELOW 12,000 FEET
WITH NO SIGNIFICANT WEATHER AND/OR OBSTRUCTIONS TO VISIBILITY.

WYZ001-250900-
YELLOWSTONE NATIONAL PARK

CITY           SKY/WX    TMP DP  RH WIND       PRES   REMARKS
LK YELLOWSTONE   N/A     27  23  85 NW3       30.28
W YELLOWSTONE  NOT AVBL

$$
WYZ002>013-054>058-071-098>099-250900-
NORTHERN WYOMING

CITY           SKY/WX    TMP DP  RH WIND       PRES   REMARKS
JACKSON        CLEAR     30  27  86 N7        30.24R WCI  23
CODY             N/A     39  36  87 CALM      30.11
GREYBULL       PTCLDY    37  31  78 SE6       30.10R WCI  32
WORLAND        CLEAR     44  33  65 SE10      30.11S
SHERIDAN       CLEAR     33  27  78 E3        30.12F
BUFFALO        CLEAR     39  30  70 SW7       30.16F WCI  34
GILLETTE       PTCLDY    32  28  85 S8        30.14F WCI  25
HULETT         FAIR      46  30  53 CALM      30.16
NEWCASTLE      FAIR      41  32  70 N5        30.16

$$
WYZ014>020-022>026-101>103-250900-
CENTRAL WYOMING

CITY           SKY/WX    TMP DP  RH WIND       PRES   REMARKS
BIG PINEY      PTCLDY    28  19  69 CALM      30.30R
PINEDALE       MOSUNNY   27  23  86 NW8       30.30  WCI  18
DUBOIS         FAIR      37  19  48 W13       30.24S WCI  29
LANDER         PTCLDY    52  19  27 SW3       30.16R
RIVERTON       CLEAR     49  20  31 NW12      30.17S
CASPER         CLEAR     40  30  67 NW6       30.18R
DOUGLAS        CLEAR     40  22  48 N5        30.17R

$$
WYZ021-027>030-104>119-250900-
SOUTHERN WYOMING

CITY           SKY/WX    TMP DP  RH WIND       PRES   REMARKS
EVANSTON       CLEAR     51  20  29 SE7       30.27S
KEMMERER       MOSUNNY   37  27  65 N7        30.28F WCI  32
FORT BRIDGER   FAIR      53  17  25 S7        30.30S
ROCK SPRINGS   PTCLDY    46  27  47 CALM      30.28S
DIXON          FAIR      35  29  78 CALM      30.33S
RAWLINS        CLEAR     49  26  41 SW8       30.29R
SARATOGA       FAIR      41  27  56 SE6       30.32S
LARAMIE        PTCLDY    43  22  43 S7        30.31F
CHEYENNE       CLEAR     51  23  33 N5        30.25R
TORRINGTON     CLEAR     42  28  57 CALM      30.14R
PINE BLUFFS    FAIR      36  32  87 CALM      30.21S

$$



USA.gov is the U.S. government's official web portal to all federal, state and local government web resources and services.